UAE766 FAOR-OMDB

Flight info

Callsign UAE766
Flight time 7h 45m
Altitude 35000
Route EGMEN1C EGMEN UQ2 EPSEK UM307 VBR UM310 DV UL437 RAGGS/N0485F370 UL437 VEDET B400 DAXAM Y414 DEDSO R401 VELIK/N0480F380 R401 MUSAP/N0472F350 R401 PEDOG Q308 KIPOK Q568 IMPED
Aircraft B77W/H-SDE1E2E3FGHIJ2J3J4J5M1RWXY/LB1D1

Departure

Time 2026-04-25 08:39
Airport O.R. Tambo International Airport (FAOR)

Arrival

Time 2026-04-25 16:24
Airport Dubai International Airport (OMDB)
Time Latitude Longitude Altitude Speed Heading
2026-04-25 07:51 -26.13035 28.23542 5553 ft 0 kts
2026-04-25 08:19 -26.13036 28.23542 5553 ft 1 kts
2026-04-25 08:20 -26.13051 28.23541 5553 ft 2 kts
2026-04-25 08:20 -26.13065 28.23540 5554 ft 2 kts
2026-04-25 08:20 -26.13079 28.23538 5554 ft 2 kts
2026-04-25 08:20 -26.13094 28.23536 5555 ft 2 kts 21°
2026-04-25 08:21 -26.13106 28.23528 5556 ft 2 kts 47°
2026-04-25 08:21 -26.13115 28.23514 5557 ft 2 kts 70°
2026-04-25 08:21 -26.13117 28.23499 5558 ft 1 kts 92°
2026-04-25 08:21 -26.13117 28.23493 5558 ft 0 kts 97°
2026-04-25 08:32 -26.13117 28.23494 5558 ft 1 kts 97°
2026-04-25 08:33 -26.13121 28.23556 5555 ft 13 kts 95°
2026-04-25 08:33 -26.13140 28.23674 5549 ft 10 kts 137°
2026-04-25 08:33 -26.13203 28.23677 5550 ft 7 kts 196°
2026-04-25 08:33 -26.13281 28.23653 5553 ft 15 kts 197°
2026-04-25 08:34 -26.13405 28.23613 5558 ft 21 kts 196°
2026-04-25 08:34 -26.13574 28.23561 5563 ft 28 kts 196°
2026-04-25 08:34 -26.13760 28.23505 5566 ft 23 kts 195°
2026-04-25 08:34 -26.13902 28.23461 5568 ft 14 kts 194°
2026-04-25 08:35 -26.13988 28.23439 5570 ft 11 kts 194°
2026-04-25 08:35 -26.14060 28.23413 5571 ft 12 kts 200°
2026-04-25 08:35 -26.14161 28.23379 5573 ft 17 kts 194°
2026-04-25 08:35 -26.14290 28.23340 5576 ft 20 kts 194°
2026-04-25 08:36 -26.14411 28.23300 5579 ft 15 kts 198°
2026-04-25 08:36 -26.14503 28.23280 5581 ft 11 kts 183°
2026-04-25 08:36 -26.14565 28.23287 5582 ft 3 kts 159°
2026-04-25 08:36 -26.14566 28.23288 5582 ft 0 kts 153°
2026-04-25 08:37 -26.14567 28.23289 5582 ft 1 kts 152°
2026-04-25 08:37 -26.14571 28.23292 5582 ft 0 kts 148°
2026-04-25 08:37 -26.14588 28.23308 5582 ft 9 kts 131°
2026-04-25 08:37 -26.14620 28.23404 5579 ft 10 kts 101°
2026-04-25 08:38 -26.14576 28.23452 5576 ft 11 kts 17°
2026-04-25 08:38 -26.14388 28.23512 5570 ft 55 kts 15°
2026-04-25 08:38 -26.13809 28.23689 5556 ft 116 kts 16°
2026-04-25 08:38 -26.12829 28.23990 5529 ft 171 kts 16°
2026-04-25 08:39 -26.11578 28.24391 5688 ft 202 kts 16°
2026-04-25 08:39 -26.10208 28.24845 6236 ft 205 kts 15°
2026-04-25 08:39 -26.08816 28.25289 6871 ft 216 kts 14°
2026-04-25 08:39 -26.07302 28.25743 7421 ft 232 kts 13°
2026-04-25 08:40 -26.05686 28.26219 7940 ft 252 kts 12°
2026-04-25 08:40 -26.03921 28.26743 8477 ft 272 kts 13°
2026-04-25 08:40 -26.02174 28.27652 9147 ft 286 kts 38°
2026-04-25 08:40 -26.00911 28.29336 10034 ft 292 kts 61°
2026-04-25 08:41 -26.00263 28.31503 10697 ft 307 kts 75°
2026-04-25 08:41 -25.99833 28.33885 11173 ft 327 kts 77°
2026-04-25 08:41 -25.99372 28.36451 11727 ft 346 kts 76°
2026-04-25 08:41 -25.98870 28.39097 12297 ft 362 kts 76°
2026-04-25 08:42 -25.98323 28.41899 12855 ft 380 kts 76°
2026-04-25 08:42 -25.97748 28.44826 13313 ft 393 kts 76°
2026-04-25 08:42 -25.97160 28.47820 13729 ft 405 kts 76°
2026-04-25 08:42 -25.96554 28.50905 14379 ft 411 kts 76°
2026-04-25 08:43 -25.95958 28.53968 15172 ft 413 kts 77°
2026-04-25 08:43 -25.95356 28.57073 16008 ft 414 kts 77°
2026-04-25 08:43 -25.94737 28.60244 16753 ft 418 kts 77°
2026-04-25 08:43 -25.94112 28.63389 17394 ft 423 kts 76°
2026-04-25 08:44 -25.93164 28.66462 18092 ft 425 kts 65°
2026-04-25 08:44 -25.91731 28.69319 18752 ft 429 kts 54°
2026-04-25 08:44 -25.89825 28.71918 19359 ft 433 kts 44°
2026-04-25 08:44 -25.87634 28.74181 19990 ft 437 kts 40°
2026-04-25 08:45 -25.85329 28.76447 20665 ft 441 kts 40°
2026-04-25 08:45 -25.83051 28.78686 21306 ft 445 kts 40°
2026-04-25 08:45 -25.80725 28.80973 21927 ft 449 kts 40°
2026-04-25 08:45 -25.78375 28.83283 22569 ft 452 kts 40°
2026-04-25 08:46 -25.76001 28.85619 23167 ft 456 kts 40°
2026-04-25 08:46 -25.73608 28.87972 23729 ft 461 kts 39°
2026-04-25 08:46 -25.71198 28.90341 24266 ft 466 kts 39°
2026-04-25 08:46 -25.68784 28.92714 24790 ft 470 kts 39°
2026-04-25 08:47 -25.66314 28.95140 25327 ft 475 kts 39°
2026-04-25 08:47 -25.63920 28.97624 25867 ft 480 kts 44°
2026-04-25 08:47 -25.61615 29.00327 26354 ft 485 kts 44°
2026-04-25 08:47 -25.59316 29.03059 26856 ft 489 kts 45°
2026-04-25 08:48 -25.56965 29.05852 27370 ft 493 kts 44°
2026-04-25 08:48 -25.54612 29.08643 27844 ft 497 kts 44°
2026-04-25 08:48 -25.52253 29.11439 28301 ft 502 kts 44°
2026-04-25 08:48 -25.49861 29.14270 28788 ft 506 kts 44°
2026-04-25 08:49 -25.47456 29.17115 29259 ft 509 kts 44°
2026-04-25 08:49 -25.45054 29.19951 29691 ft 513 kts 44°
2026-04-25 08:49 -25.42610 29.22848 30192 ft 513 kts 44°
2026-04-25 08:49 -25.40178 29.25749 30725 ft 513 kts 44°
2026-04-25 08:50 -25.37741 29.28654 31237 ft 512 kts 44°
2026-04-25 08:50 -25.35328 29.31530 31692 ft 513 kts 44°
2026-04-25 08:50 -25.32899 29.34423 32127 ft 513 kts 44°
2026-04-25 08:50 -25.30503 29.37275 32559 ft 513 kts 44°
2026-04-25 08:51 -25.28053 29.40188 32991 ft 513 kts 44°
2026-04-25 08:51 -25.25644 29.43049 33284 ft 516 kts 44°
2026-04-25 08:51 -25.23188 29.45964 33297 ft 516 kts 44°
2026-04-25 08:52 -25.18316 29.51739 33295 ft 513 kts 44°
2026-04-25 08:52 -25.13439 29.57510 33310 ft 514 kts 44°
2026-04-25 08:53 -25.08586 29.63250 33320 ft 513 kts 44°
2026-04-25 08:53 -25.03736 29.68980 33318 ft 511 kts 43°
2026-04-25 08:54 -24.98880 29.74705 33319 ft 511 kts 43°
2026-04-25 08:54 -24.94018 29.80431 33319 ft 511 kts 43°
2026-04-25 08:55 -24.89185 29.86110 33313 ft 511 kts 42°
2026-04-25 08:55 -24.84336 29.91802 33308 ft 509 kts 42°
2026-04-25 08:56 -24.79501 29.97513 33322 ft 509 kts 43°
2026-04-25 08:56 -24.74696 30.03197 33325 ft 509 kts 42°
2026-04-25 08:57 -24.69873 30.08904 33316 ft 507 kts 42°
2026-04-25 08:57 -24.65070 30.14589 33302 ft 508 kts 42°
2026-04-25 08:58 -24.60302 30.20230 33295 ft 507 kts 42°
2026-04-25 08:58 -24.55504 30.25988 33300 ft 508 kts 43°
2026-04-25 08:59 -24.50758 30.31685 33294 ft 507 kts 43°
2026-04-25 08:59 -24.45990 30.37400 33290 ft 507 kts 43°
2026-04-25 09:00 -24.41241 30.43076 33293 ft 506 kts 42°
2026-04-25 09:00 -24.36483 30.48762 33278 ft 506 kts 42°
2026-04-25 09:01 -24.31733 30.54432 33279 ft 506 kts 42°
2026-04-25 09:01 -24.26994 30.60083 33259 ft 505 kts 42°
2026-04-25 09:02 -24.22234 30.65748 33240 ft 504 kts 41°
2026-04-25 09:02 -24.17489 30.71388 33235 ft 505 kts 41°
2026-04-25 09:03 -24.12743 30.77022 33242 ft 504 kts 41°
2026-04-25 09:03 -24.07993 30.82656 33208 ft 503 kts 41°
2026-04-25 09:04 -24.03260 30.88264 33215 ft 504 kts 41°
2026-04-25 09:04 -23.98525 30.93861 33207 ft 502 kts 41°
2026-04-25 09:05 -23.93771 30.99472 33207 ft 505 kts 41°
2026-04-25 09:05 -23.89027 31.05075 33214 ft 502 kts 41°
2026-04-25 09:06 -23.84284 31.10658 33211 ft 503 kts 41°
2026-04-25 09:06 -23.79517 31.16262 33210 ft 502 kts 41°
2026-04-25 09:07 -23.74749 31.21863 33208 ft 504 kts 41°
2026-04-25 09:07 -23.70017 31.27425 33211 ft 503 kts 41°
2026-04-25 09:08 -23.65250 31.33019 33211 ft 501 kts 41°
2026-04-25 09:08 -23.60509 31.38573 33209 ft 503 kts 41°
2026-04-25 09:09 -23.55734 31.44165 33211 ft 503 kts 41°
2026-04-25 09:09 -23.50977 31.49727 33212 ft 503 kts 41°
2026-04-25 09:10 -23.46198 31.55289 33211 ft 502 kts 39°
2026-04-25 09:10 -23.40930 31.60160 33210 ft 498 kts 33°
2026-04-25 09:11 -23.32843 31.67254 33201 ft 496 kts 33°
2026-04-25 09:11 -23.27461 31.71965 33197 ft 497 kts 33°
2026-04-25 09:12 -23.22095 31.76656 33199 ft 497 kts 33°
2026-04-25 09:12 -23.16726 31.81343 33200 ft 496 kts 33°
2026-04-25 09:13 -23.11349 31.86031 33199 ft 497 kts 33°
2026-04-25 09:13 -23.05930 31.90751 33197 ft 498 kts 33°
2026-04-25 09:14 -23.00527 31.95452 33199 ft 497 kts 33°
2026-04-25 09:14 -22.95161 32.00137 33194 ft 499 kts 34°
2026-04-25 09:15 -22.89846 32.04945 33193 ft 497 kts 34°
2026-04-25 09:15 -22.84510 32.09772 33193 ft 497 kts 34°
2026-04-25 09:16 -22.79214 32.14550 33192 ft 498 kts 34°
2026-04-25 09:16 -22.73903 32.19335 33187 ft 497 kts 34°
2026-04-25 09:17 -22.65900 32.26530 33183 ft 498 kts 34°
2026-04-25 09:18 -22.60599 32.31290 33180 ft 497 kts 34°
2026-04-25 09:18 -22.55284 32.36055 33179 ft 498 kts 34°
2026-04-25 09:19 -22.49943 32.40841 33174 ft 496 kts 35°
2026-04-25 09:19 -22.44649 32.45578 33174 ft 497 kts 35°
2026-04-25 09:20 -22.39344 32.50321 33171 ft 495 kts 35°
2026-04-25 09:20 -22.33991 32.55101 33168 ft 496 kts 35°
2026-04-25 09:21 -22.28687 32.59832 33168 ft 495 kts 35°
2026-04-25 09:21 -22.23377 32.64565 33165 ft 494 kts 35°
2026-04-25 09:22 -22.18100 32.69262 33155 ft 495 kts 34°
2026-04-25 09:22 -22.12774 32.74000 33148 ft 493 kts 34°
2026-04-25 09:23 -22.07469 32.78713 33150 ft 494 kts 35°
2026-04-25 09:23 -22.02191 32.83421 33148 ft 494 kts 36°
2026-04-25 09:24 -21.96970 32.88169 33150 ft 493 kts 36°
2026-04-25 09:24 -21.91710 32.92946 33151 ft 493 kts 36°
2026-04-25 09:25 -21.86477 32.97691 33147 ft 492 kts 36°
2026-04-25 09:25 -21.81252 33.02418 33144 ft 491 kts 36°
2026-04-25 09:26 -21.76032 33.07127 33149 ft 489 kts 35°
2026-04-25 09:26 -21.70750 33.11818 33149 ft 490 kts 35°
2026-04-25 09:27 -21.65505 33.16472 33148 ft 488 kts 35°
2026-04-25 09:27 -21.60285 33.21101 33139 ft 489 kts 35°
2026-04-25 09:28 -21.55043 33.25748 33147 ft 488 kts 34°
2026-04-25 09:28 -21.49791 33.30399 33134 ft 486 kts 35°
2026-04-25 09:29 -21.44579 33.35009 33143 ft 488 kts 35°
2026-04-25 09:29 -21.39354 33.39628 33138 ft 485 kts 34°
2026-04-25 09:30 -21.34136 33.44233 33144 ft 486 kts 34°
2026-04-25 09:30 -21.28938 33.48818 33140 ft 485 kts 34°
2026-04-25 09:31 -21.23709 33.53426 33136 ft 485 kts 34°
2026-04-25 09:31 -21.18514 33.58001 33143 ft 485 kts 34°
2026-04-25 09:32 -21.13289 33.62598 33135 ft 485 kts 34°
2026-04-25 09:32 -21.08092 33.67167 33128 ft 483 kts 34°
2026-04-25 09:33 -21.02895 33.71730 33131 ft 484 kts 34°
2026-04-25 09:33 -20.97684 33.76306 33126 ft 483 kts 34°
2026-04-25 09:34 -20.92479 33.80869 33126 ft 483 kts 34°
2026-04-25 09:34 -20.87291 33.85413 33131 ft 485 kts 34°
2026-04-25 09:35 -20.82069 33.89984 33131 ft 483 kts 34°
2026-04-25 09:35 -20.76879 33.94521 33128 ft 484 kts 34°
2026-04-25 09:36 -20.71666 33.99073 33122 ft 484 kts 34°
2026-04-25 09:36 -20.66543 34.03818 33122 ft 487 kts 37°
2026-04-25 09:37 -20.61538 34.08628 33125 ft 487 kts 37°
2026-04-25 09:37 -20.56462 34.13487 33119 ft 486 kts 37°
2026-04-25 09:38 -20.51426 34.18292 33125 ft 488 kts 37°
2026-04-25 09:38 -20.46383 34.23096 33122 ft 485 kts 36°
2026-04-25 09:39 -20.41353 34.27880 33117 ft 487 kts 36°
2026-04-25 09:39 -20.36287 34.32694 33113 ft 486 kts 37°
2026-04-25 09:40 -20.28729 34.39865 33112 ft 487 kts 37°
2026-04-25 09:40 -20.23647 34.44682 33110 ft 487 kts 37°
2026-04-25 09:41 -20.18599 34.49462 33106 ft 486 kts 37°
2026-04-25 09:41 -20.13561 34.54228 33107 ft 486 kts 37°
2026-04-25 09:42 -20.08495 34.59017 33105 ft 486 kts 37°
2026-04-25 09:42 -20.03425 34.63804 33105 ft 486 kts 37°
2026-04-25 09:43 -19.98377 34.68567 33093 ft 486 kts 37°
2026-04-25 09:43 -19.93354 34.73302 33095 ft 485 kts 37°
2026-04-25 09:44 -19.88302 34.78060 33099 ft 485 kts 37°
2026-04-25 09:44 -19.83244 34.82820 33104 ft 486 kts 37°
2026-04-25 09:45 -19.77808 34.87001 33114 ft 476 kts 22°
2026-04-25 09:45 -19.71673 34.89526 33100 ft 474 kts 14°
2026-04-25 09:46 -19.65421 34.91794 33093 ft 471 kts 14°
2026-04-25 09:46 -19.59227 34.94020 33095 ft 472 kts 14°
2026-04-25 09:47 -19.52999 34.96249 33094 ft 472 kts 14°
2026-04-25 09:47 -19.46738 34.98483 33100 ft 472 kts 14°
2026-04-25 09:48 -19.40508 35.00703 33100 ft 472 kts 14°
2026-04-25 09:48 -19.34281 35.02918 33093 ft 473 kts 14°
2026-04-25 09:49 -19.28022 35.05142 33098 ft 471 kts 14°
2026-04-25 09:49 -19.21805 35.07348 33096 ft 473 kts 14°
2026-04-25 09:50 -19.15573 35.09559 33094 ft 472 kts 14°
2026-04-25 09:50 -19.09322 35.11773 33109 ft 473 kts 14°
2026-04-25 09:51 -19.03083 35.13982 33095 ft 472 kts 14°
2026-04-25 09:51 -18.96829 35.16195 33087 ft 474 kts 14°
2026-04-25 09:52 -18.90595 35.18399 33087 ft 473 kts 14°
2026-04-25 09:52 -18.84324 35.20614 33097 ft 474 kts 14°
2026-04-25 09:53 -18.78079 35.22818 33098 ft 473 kts 14°
2026-04-25 09:53 -18.71828 35.25022 33093 ft 475 kts 14°
2026-04-25 09:54 -18.65567 35.27228 33091 ft 474 kts 14°
2026-04-25 09:54 -18.59255 35.29451 33095 ft 474 kts 14°
2026-04-25 09:55 -18.53027 35.31647 33089 ft 475 kts 14°
2026-04-25 09:55 -18.46761 35.33855 33088 ft 475 kts 14°
2026-04-25 09:56 -18.40451 35.36076 33104 ft 476 kts 14°
2026-04-25 09:56 -18.34155 35.38291 33097 ft 475 kts 14°
2026-04-25 09:57 -18.27912 35.40486 33087 ft 476 kts 14°
2026-04-25 09:57 -18.21573 35.42712 33088 ft 477 kts 14°
2026-04-25 09:58 -18.15310 35.44910 33092 ft 476 kts 14°
2026-04-25 09:58 -18.08980 35.47130 33082 ft 477 kts 14°
2026-04-25 09:59 -18.02702 35.49330 33077 ft 477 kts 14°
2026-04-25 09:59 -17.96386 35.51542 33084 ft 477 kts 14°
2026-04-25 10:00 -17.90080 35.53748 33087 ft 478 kts 14°
2026-04-25 10:00 -17.83785 35.55949 33088 ft 477 kts 15°
2026-04-25 10:01 -17.77471 35.58157 33084 ft 478 kts 15°
2026-04-25 10:01 -17.71130 35.60372 33095 ft 478 kts 15°
2026-04-25 10:02 -17.64821 35.62574 33096 ft 478 kts 15°
2026-04-25 10:02 -17.58490 35.64782 33101 ft 480 kts 15°
2026-04-25 10:03 -17.52176 35.66982 33096 ft 478 kts 14°
2026-04-25 10:03 -17.45839 35.69188 33099 ft 481 kts 15°
2026-04-25 10:04 -17.39491 35.71399 33096 ft 479 kts 15°
2026-04-25 10:04 -17.33140 35.73606 33103 ft 480 kts 15°
2026-04-25 10:05 -17.26769 35.75819 33098 ft 480 kts 15°
2026-04-25 10:05 -17.20429 35.78017 33102 ft 481 kts 15°
2026-04-25 10:06 -17.14082 35.80216 33104 ft 481 kts 15°
2026-04-25 10:06 -17.07700 35.82426 33110 ft 481 kts 15°
2026-04-25 10:07 -17.01364 35.84618 33104 ft 482 kts 15°
2026-04-25 10:07 -16.94958 35.86833 33110 ft 482 kts 15°
2026-04-25 10:08 -16.88580 35.89036 33114 ft 482 kts 15°
2026-04-25 10:08 -16.82229 35.91228 33115 ft 482 kts 15°
2026-04-25 10:09 -16.75851 35.93429 33116 ft 482 kts 15°
2026-04-25 10:09 -16.69483 35.95624 33123 ft 482 kts 15°
2026-04-25 10:10 -16.63080 35.97830 33115 ft 481 kts 15°
2026-04-25 10:10 -16.56722 36.00018 33125 ft 481 kts 15°
2026-04-25 10:11 -16.50363 36.02206 33133 ft 482 kts 15°
2026-04-25 10:11 -16.43994 36.04395 33131 ft 481 kts 15°
2026-04-25 10:12 -16.37622 36.06585 33129 ft 481 kts 15°
2026-04-25 10:13 -16.28070 36.09863 33133 ft 481 kts 15°
2026-04-25 10:13 -16.21715 36.12042 33130 ft 481 kts 15°
2026-04-25 10:14 -16.15357 36.14221 33142 ft 481 kts 15°
2026-04-25 10:14 -16.08985 36.16404 33145 ft 481 kts 16°
2026-04-25 10:15 -16.02605 36.18587 33141 ft 481 kts 16°
2026-04-25 10:15 -15.96230 36.20760 33144 ft 481 kts 15°
2026-04-25 10:16 -15.89847 36.22895 33145 ft 481 kts 15°
2026-04-25 10:16 -15.83483 36.25024 33153 ft 482 kts 15°
2026-04-25 10:17 -15.77064 36.27170 33153 ft 483 kts 15°
2026-04-25 10:17 -15.70661 36.29310 33156 ft 483 kts 15°
2026-04-25 10:18 -15.64246 36.31453 33157 ft 483 kts 15°
2026-04-25 10:18 -15.57844 36.33590 33158 ft 483 kts 15°
2026-04-25 10:19 -15.51442 36.35726 33157 ft 484 kts 15°
2026-04-25 10:19 -15.45011 36.37871 33159 ft 484 kts 15°
2026-04-25 10:20 -15.38585 36.40012 33159 ft 485 kts 15°
2026-04-25 10:20 -15.32164 36.42151 33156 ft 485 kts 15°
2026-04-25 10:21 -15.25724 36.44294 33152 ft 485 kts 16°
2026-04-25 10:21 -15.19290 36.46434 33142 ft 485 kts 16°
2026-04-25 10:22 -15.12879 36.48565 33141 ft 485 kts 16°
2026-04-25 10:22 -15.06428 36.50708 33138 ft 486 kts 16°
2026-04-25 10:23 -14.99977 36.52850 33147 ft 486 kts 16°
2026-04-25 10:23 -14.93540 36.54985 33146 ft 486 kts 16°
2026-04-25 10:24 -14.87073 36.57129 33147 ft 486 kts 16°
2026-04-25 10:24 -14.80649 36.59258 33138 ft 485 kts 16°
2026-04-25 10:25 -14.74219 36.61387 33131 ft 484 kts 16°
2026-04-25 10:25 -14.67782 36.63517 33133 ft 484 kts 16°
2026-04-25 10:26 -14.61388 36.65632 33130 ft 484 kts 16°
2026-04-25 10:26 -14.54939 36.67764 33135 ft 484 kts 16°
2026-04-25 10:27 -14.48554 36.69873 33133 ft 483 kts 16°
2026-04-25 10:27 -14.42148 36.71988 33132 ft 483 kts 16°
2026-04-25 10:28 -14.35718 36.74109 33129 ft 482 kts 16°
2026-04-25 10:28 -14.29308 36.76223 33128 ft 482 kts 16°
2026-04-25 10:29 -14.22931 36.78324 33133 ft 483 kts 16°
2026-04-25 10:29 -14.16498 36.80442 33129 ft 482 kts 17°
2026-04-25 10:30 -14.10139 36.82536 33124 ft 482 kts 17°
2026-04-25 10:30 -14.03723 36.84646 33122 ft 482 kts 17°
2026-04-25 10:31 -13.97321 36.86774 33125 ft 482 kts 17°
2026-04-25 10:31 -13.90972 36.88903 33122 ft 481 kts 17°
2026-04-25 10:32 -13.84553 36.91053 33133 ft 482 kts 17°
2026-04-25 10:32 -13.78188 36.93183 33136 ft 481 kts 17°
2026-04-25 10:33 -13.71824 36.95311 33138 ft 481 kts 17°
2026-04-25 10:33 -13.65449 36.97442 33133 ft 481 kts 17°
2026-04-25 10:34 -13.59059 36.99575 33130 ft 481 kts 17°
2026-04-25 10:34 -13.52714 37.01693 33129 ft 481 kts 17°
2026-04-25 10:35 -13.46329 37.03823 33125 ft 481 kts 18°
2026-04-25 10:35 -13.39949 37.05949 33118 ft 481 kts 18°
2026-04-25 10:36 -13.33578 37.08072 33109 ft 480 kts 18°
2026-04-25 10:36 -13.27183 37.10201 33101 ft 481 kts 18°
2026-04-25 10:37 -13.20842 37.12312 33096 ft 481 kts 18°
2026-04-25 10:37 -13.14454 37.14436 33092 ft 481 kts 18°
2026-04-25 10:38 -13.08053 37.16564 33084 ft 481 kts 18°
2026-04-25 10:38 -13.01680 37.18682 33084 ft 482 kts 18°
2026-04-25 10:39 -12.95289 37.20804 33078 ft 482 kts 18°
2026-04-25 10:39 -12.88887 37.22929 33081 ft 482 kts 18°
2026-04-25 10:40 -12.82511 37.25044 33077 ft 481 kts 18°
2026-04-25 10:40 -12.76153 37.27211 33078 ft 481 kts 19°
2026-04-25 10:41 -12.69810 37.29396 33076 ft 481 kts 19°
2026-04-25 10:41 -12.63466 37.31577 33070 ft 482 kts 19°
2026-04-25 10:42 -12.57085 37.33769 33070 ft 481 kts 19°
2026-04-25 10:42 -12.50741 37.35945 33072 ft 482 kts 19°
2026-04-25 10:43 -12.44370 37.38129 33069 ft 481 kts 19°
2026-04-25 10:43 -12.38026 37.40303 33071 ft 481 kts 19°
2026-04-25 10:44 -12.31698 37.42469 33073 ft 481 kts 19°
2026-04-25 10:44 -12.25330 37.44649 33072 ft 481 kts 19°
2026-04-25 10:45 -12.18965 37.46826 33071 ft 480 kts 19°
2026-04-25 10:45 -12.12582 37.49009 33070 ft 481 kts 19°
2026-04-25 10:46 -12.06214 37.51185 33070 ft 481 kts 19°
2026-04-25 10:46 -11.99888 37.53345 33070 ft 481 kts 19°
2026-04-25 10:47 -11.93497 37.55527 33069 ft 481 kts 19°
2026-04-25 10:47 -11.87171 37.57685 33067 ft 481 kts 19°
2026-04-25 10:48 -11.80799 37.59858 33063 ft 481 kts 19°
2026-04-25 10:48 -11.74425 37.62031 33059 ft 481 kts 19°
2026-04-25 10:49 -11.68112 37.64182 33059 ft 481 kts 19°
2026-04-25 10:49 -11.61729 37.66347 33060 ft 480 kts 18°
2026-04-25 10:50 -11.55366 37.68431 33059 ft 480 kts 18°
2026-04-25 10:50 -11.48997 37.70515 33054 ft 480 kts 18°
2026-04-25 10:51 -11.42630 37.72599 33056 ft 480 kts 18°
2026-04-25 10:51 -11.36272 37.74680 33053 ft 479 kts 18°
2026-04-25 10:52 -11.29909 37.76762 33055 ft 479 kts 18°
2026-04-25 10:52 -11.23529 37.78850 33052 ft 479 kts 19°
2026-04-25 10:53 -11.17197 37.80921 33050 ft 479 kts 19°
2026-04-25 10:53 -11.10807 37.83011 33046 ft 479 kts 19°
2026-04-25 10:54 -11.04458 37.85085 33041 ft 478 kts 19°
2026-04-25 10:54 -10.98133 37.87151 33036 ft 478 kts 19°
2026-04-25 10:55 -10.91767 37.89230 33047 ft 478 kts 19°
2026-04-25 10:55 -10.85417 37.91303 33045 ft 478 kts 19°
2026-04-25 10:56 -10.79120 37.93357 33046 ft 478 kts 19°
2026-04-25 10:56 -10.72780 37.95425 33046 ft 478 kts 19°
2026-04-25 10:57 -10.66409 37.97501 33050 ft 478 kts 19°
2026-04-25 10:57 -10.60077 37.99564 33050 ft 477 kts 19°
2026-04-25 10:58 -10.53763 38.01620 33049 ft 478 kts 19°
2026-04-25 10:58 -10.47443 38.03677 33058 ft 477 kts 19°
2026-04-25 10:59 -10.41104 38.05740 33050 ft 477 kts 19°
2026-04-25 10:59 -10.34775 38.07798 33054 ft 477 kts 19°
2026-04-25 11:00 -10.28402 38.09870 33049 ft 477 kts 19°
2026-04-25 11:00 -10.22078 38.11926 33052 ft 477 kts 19°
2026-04-25 11:01 -10.15740 38.13984 33057 ft 476 kts 19°
2026-04-25 11:01 -10.09400 38.16043 33054 ft 478 kts 19°
2026-04-25 11:02 -10.03079 38.18094 33056 ft 477 kts 19°
2026-04-25 11:02 -9.96745 38.20149 33053 ft 477 kts 19°
2026-04-25 11:03 -9.90422 38.22200 33053 ft 477 kts 19°
2026-04-25 11:03 -9.84059 38.24262 33046 ft 477 kts 19°
2026-04-25 11:04 -9.77721 38.26316 33043 ft 477 kts 19°
2026-04-25 11:04 -9.71400 38.28363 33034 ft 477 kts 19°
2026-04-25 11:05 -9.65082 38.30409 33036 ft 477 kts 19°
2026-04-25 11:05 -9.58719 38.32468 33032 ft 476 kts 19°
2026-04-25 11:06 -9.52390 38.34516 33030 ft 477 kts 19°
2026-04-25 11:06 -9.46102 38.36549 33027 ft 476 kts 19°
2026-04-25 11:07 -9.39756 38.38601 33022 ft 476 kts 19°
2026-04-25 11:07 -9.33440 38.40641 33017 ft 476 kts 19°
2026-04-25 11:08 -9.27135 38.42678 33014 ft 475 kts 19°
2026-04-25 11:08 -9.20792 38.44727 33007 ft 475 kts 19°
2026-04-25 11:09 -9.14532 38.46747 33006 ft 475 kts 19°
2026-04-25 11:09 -9.08198 38.48790 33000 ft 474 kts 19°
2026-04-25 11:10 -9.01892 38.50824 32998 ft 475 kts 19°
2026-04-25 11:10 -8.95580 38.52860 32985 ft 473 kts 19°
2026-04-25 11:11 -8.89320 38.54877 32985 ft 473 kts 19°
2026-04-25 11:11 -8.83034 38.56902 32984 ft 473 kts 19°
2026-04-25 11:12 -8.76748 38.58927 32986 ft 473 kts 19°
2026-04-25 11:12 -8.70473 38.60947 32983 ft 473 kts 18°
2026-04-25 11:13 -8.64178 38.62973 32981 ft 473 kts 18°
2026-04-25 11:13 -8.57924 38.64985 32984 ft 472 kts 18°
2026-04-25 11:14 -8.51633 38.67009 32989 ft 472 kts 18°
2026-04-25 11:14 -8.45374 38.69022 32992 ft 471 kts 18°
2026-04-25 11:15 -8.39109 38.71041 32994 ft 470 kts 18°
2026-04-25 11:15 -8.32851 38.73056 33006 ft 472 kts 18°
2026-04-25 11:16 -8.23470 38.76075 33011 ft 472 kts 18°
2026-04-25 11:16 -8.17215 38.78088 32998 ft 470 kts 18°
2026-04-25 11:17 -8.10962 38.80099 32981 ft 470 kts 18°
2026-04-25 11:17 -8.04728 38.82103 32967 ft 470 kts 17°
2026-04-25 11:18 -7.98461 38.84117 32954 ft 469 kts 17°
2026-04-25 11:18 -7.92219 38.86123 32958 ft 472 kts 17°
2026-04-25 11:19 -7.85965 38.88132 32964 ft 470 kts 17°
2026-04-25 11:19 -7.79701 38.90143 32967 ft 471 kts 17°
2026-04-25 11:20 -7.73498 38.92135 32970 ft 470 kts 17°
2026-04-25 11:20 -7.67228 38.94147 32969 ft 470 kts 17°
2026-04-25 11:21 -7.60985 38.96149 32968 ft 471 kts 17°
2026-04-25 11:21 -7.54725 38.98157 32970 ft 471 kts 17°
2026-04-25 11:22 -7.49494 38.99834 32968 ft 472 kts 17°
2026-04-25 11:22 -7.42181 39.02178 32967 ft 472 kts 17°
2026-04-25 11:23 -7.35909 39.04188 32964 ft 471 kts 17°
2026-04-25 11:23 -7.29665 39.06188 32967 ft 471 kts 17°
2026-04-25 11:24 -7.23375 39.08202 32965 ft 472 kts 17°
2026-04-25 11:24 -7.17099 39.10211 32968 ft 471 kts 17°
2026-04-25 11:25 -7.10849 39.12211 32968 ft 472 kts 17°
2026-04-25 11:25 -7.04583 39.14216 32973 ft 472 kts 17°
2026-04-25 11:26 -6.98313 39.16222 32976 ft 473 kts 17°
2026-04-25 11:26 -6.92000 39.18241 32971 ft 472 kts 17°
2026-04-25 11:27 -6.86089 39.21110 32971 ft 475 kts 32°
2026-04-25 11:27 -6.81523 39.24210 32973 ft 474 kts 33°
2026-04-25 11:28 -6.75161 39.28561 32958 ft 474 kts 33°
2026-04-25 11:28 -6.69691 39.32296 32954 ft 473 kts 33°
2026-04-25 11:29 -6.64245 39.36012 32946 ft 474 kts 33°
2026-04-25 11:29 -6.58775 39.39742 32943 ft 473 kts 33°
2026-04-25 11:30 -6.53319 39.43461 32939 ft 474 kts 33°
2026-04-25 11:30 -6.47861 39.47180 32936 ft 474 kts 33°
2026-04-25 11:31 -6.42425 39.50883 32937 ft 474 kts 33°
2026-04-25 11:31 -6.36940 39.54618 32935 ft 474 kts 33°
2026-04-25 11:32 -6.31460 39.58349 32934 ft 475 kts 33°
2026-04-25 11:32 -6.26007 39.62060 32932 ft 475 kts 33°
2026-04-25 11:33 -6.20500 39.65765 32931 ft 475 kts 32°
2026-04-25 11:33 -6.15001 39.69449 32930 ft 475 kts 32°
2026-04-25 11:34 -6.09501 39.73134 32930 ft 474 kts 32°
2026-04-25 11:34 -6.04000 39.76820 32929 ft 476 kts 32°
2026-04-25 11:35 -5.98475 39.80521 32929 ft 476 kts 32°
2026-04-25 11:35 -5.92997 39.84190 32927 ft 475 kts 32°
2026-04-25 11:36 -5.87457 39.87900 32931 ft 475 kts 32°
2026-04-25 11:36 -5.81950 39.91587 32930 ft 475 kts 32°
2026-04-25 11:37 -5.76482 39.95248 32931 ft 474 kts 32°
2026-04-25 11:37 -5.70961 39.98942 32929 ft 474 kts 32°
2026-04-25 11:38 -5.65487 40.02604 32927 ft 474 kts 32°
2026-04-25 11:38 -5.59977 40.06290 32927 ft 474 kts 32°
2026-04-25 11:39 -5.54494 40.09957 32927 ft 474 kts 32°
2026-04-25 11:39 -5.49017 40.13619 32926 ft 474 kts 32°
2026-04-25 11:40 -5.43499 40.17308 32927 ft 472 kts 32°
2026-04-25 11:40 -5.38012 40.20975 32921 ft 474 kts 32°
2026-04-25 11:41 -5.32540 40.24632 32924 ft 472 kts 32°
2026-04-25 11:41 -5.27092 40.28270 32923 ft 472 kts 32°
2026-04-25 11:42 -5.21579 40.31953 32920 ft 472 kts 32°
2026-04-25 11:42 -5.16141 40.35583 32921 ft 472 kts 32°
2026-04-25 11:43 -5.10666 40.39257 32910 ft 472 kts 35°
2026-04-25 11:43 -5.05501 40.43335 32917 ft 472 kts 37°
2026-04-25 11:44 -5.00357 40.47436 32915 ft 472 kts 37°
2026-04-25 11:44 -4.95203 40.51519 32921 ft 472 kts 37°
2026-04-25 11:45 -4.90030 40.55603 32917 ft 472 kts 37°
2026-04-25 11:45 -4.84879 40.59661 32919 ft 472 kts 37°
2026-04-25 11:46 -4.79512 40.63451 32924 ft 473 kts 31°
2026-04-25 11:46 -4.73877 40.66892 32918 ft 472 kts 30°
2026-04-25 11:47 -4.68264 40.70316 32922 ft 471 kts 30°
2026-04-25 11:47 -4.62654 40.73739 32920 ft 473 kts 30°
2026-04-25 11:48 -4.57052 40.77158 32919 ft 472 kts 30°
2026-04-25 11:48 -4.51404 40.80604 32922 ft 472 kts 31°
2026-04-25 11:49 -4.45789 40.84030 32922 ft 473 kts 31°
2026-04-25 11:49 -4.40178 40.87453 32922 ft 472 kts 30°
2026-04-25 11:50 -4.34567 40.90875 32924 ft 472 kts 31°
2026-04-25 11:50 -4.28951 40.94300 32922 ft 473 kts 31°
2026-04-25 11:51 -4.23327 40.97729 32927 ft 473 kts 31°
2026-04-25 11:51 -4.17701 41.01159 32923 ft 473 kts 31°
2026-04-25 11:52 -4.12069 41.04592 32923 ft 473 kts 31°
2026-04-25 11:52 -4.06451 41.08016 32923 ft 473 kts 31°
2026-04-25 11:53 -4.00807 41.11455 32926 ft 473 kts 31°
2026-04-25 11:53 -3.95377 41.15260 32922 ft 475 kts 36°
2026-04-25 11:54 -3.90079 41.19190 32922 ft 474 kts 36°
2026-04-25 11:55 -3.82106 41.25098 32921 ft 474 kts 36°
2026-04-25 11:55 -3.76799 41.29027 32922 ft 474 kts 36°
2026-04-25 11:56 -3.71514 41.32938 32919 ft 474 kts 36°
2026-04-25 11:56 -3.66183 41.36882 32917 ft 475 kts 36°
2026-04-25 11:57 -3.60879 41.40806 32915 ft 474 kts 36°
2026-04-25 11:57 -3.55568 41.44733 32914 ft 475 kts 36°
2026-04-25 11:58 -3.50236 41.48675 32914 ft 475 kts 36°
2026-04-25 11:58 -3.44915 41.52609 32911 ft 475 kts 36°
2026-04-25 11:59 -3.39616 41.56526 32913 ft 474 kts 36°
2026-04-25 11:59 -3.34281 41.60469 32912 ft 475 kts 36°
2026-04-25 12:00 -3.26321 41.66351 32908 ft 475 kts 36°
2026-04-25 12:01 -3.18323 41.72260 32908 ft 476 kts 36°
2026-04-25 12:01 -3.12978 41.76208 32907 ft 475 kts 36°
2026-04-25 12:02 -3.04978 41.82116 32909 ft 477 kts 36°
2026-04-25 12:02 -2.99676 41.86031 32907 ft 476 kts 36°
2026-04-25 12:03 -2.94333 41.89977 32909 ft 477 kts 36°
2026-04-25 12:03 -2.88987 41.93923 32908 ft 475 kts 36°
2026-04-25 12:04 -2.83672 41.97846 32908 ft 477 kts 36°
2026-04-25 12:04 -2.78312 42.01803 32913 ft 476 kts 36°
2026-04-25 12:05 -2.72993 42.05728 32910 ft 475 kts 36°
2026-04-25 12:05 -2.67686 42.09644 32910 ft 475 kts 36°
2026-04-25 12:06 -2.62335 42.13593 32908 ft 474 kts 36°
2026-04-25 12:06 -2.57016 42.17516 32911 ft 475 kts 36°
2026-04-25 12:07 -2.51696 42.21440 32910 ft 474 kts 36°
2026-04-25 12:07 -2.46418 42.25333 32912 ft 475 kts 36°
2026-04-25 12:08 -2.41082 42.29269 32909 ft 473 kts 36°
2026-04-25 12:08 -2.35800 42.33164 32909 ft 473 kts 36°
2026-04-25 12:09 -2.30507 42.37067 32908 ft 473 kts 35°
2026-04-25 12:09 -2.25178 42.40996 32909 ft 473 kts 35°
2026-04-25 12:10 -2.19855 42.44882 32911 ft 473 kts 34°
2026-04-25 12:10 -2.14473 42.48598 32907 ft 471 kts 33°
2026-04-25 12:11 -2.09054 42.52340 32907 ft 471 kts 33°
2026-04-25 12:11 -2.03662 42.56071 32905 ft 471 kts 34°
2026-04-25 12:12 -1.99148 42.59193 32906 ft 471 kts 33°
2026-04-25 12:12 -1.92822 42.63474 32905 ft 471 kts 33°
2026-04-25 12:13 -1.87399 42.67142 32912 ft 471 kts 33°
2026-04-25 12:13 -1.81939 42.70838 32912 ft 471 kts 33°
2026-04-25 12:14 -1.76535 42.74498 32911 ft 471 kts 33°
2026-04-25 12:14 -1.71084 42.78190 32913 ft 472 kts 33°
2026-04-25 12:15 -1.65646 42.81873 32911 ft 472 kts 33°
2026-04-25 12:15 -1.60225 42.85545 32911 ft 471 kts 33°
2026-04-25 12:16 -1.54754 42.89250 32910 ft 472 kts 33°
2026-04-25 12:16 -1.49335 42.92920 32909 ft 472 kts 33°
2026-04-25 12:17 -1.43888 42.96609 32910 ft 472 kts 33°
2026-04-25 12:17 -1.38448 43.00293 32909 ft 473 kts 33°
2026-04-25 12:18 -1.32992 43.03987 32911 ft 472 kts 33°
2026-04-25 12:18 -1.27516 43.07695 32908 ft 473 kts 33°
2026-04-25 12:19 -1.19356 43.13220 32909 ft 473 kts 33°
2026-04-25 12:20 -1.13920 43.16900 32908 ft 473 kts 33°
2026-04-25 12:20 -1.08429 43.20617 32908 ft 474 kts 33°
2026-04-25 12:21 -1.02986 43.24302 32907 ft 473 kts 33°
2026-04-25 12:21 -0.97529 43.27996 32908 ft 473 kts 33°
2026-04-25 12:22 -0.92084 43.31681 32907 ft 473 kts 33°
2026-04-25 12:22 -0.86609 43.35387 32911 ft 474 kts 33°
2026-04-25 12:23 -0.81195 43.39052 32910 ft 472 kts 33°
2026-04-25 12:23 -0.75760 43.42730 32911 ft 472 kts 33°
2026-04-25 12:24 -0.70285 43.46436 32911 ft 472 kts 33°
2026-04-25 12:24 -0.64870 43.50101 32911 ft 471 kts 33°
2026-04-25 12:25 -0.59449 43.53769 32909 ft 471 kts 33°
2026-04-25 12:25 -0.53999 43.57457 32909 ft 471 kts 33°
2026-04-25 12:26 -0.48569 43.61132 32907 ft 471 kts 33°
2026-04-25 12:26 -0.43143 43.64804 32910 ft 471 kts 33°
2026-04-25 12:27 -0.37708 43.68482 32905 ft 470 kts 33°
2026-04-25 12:27 -0.32284 43.72152 32910 ft 471 kts 33°
2026-04-25 12:28 -0.26880 43.75809 32906 ft 470 kts 33°
2026-04-25 12:28 -0.21473 43.79468 32905 ft 470 kts 33°
2026-04-25 12:29 -0.16038 43.83145 32907 ft 469 kts 33°
2026-04-25 12:29 -0.10630 43.86805 32907 ft 470 kts 33°
2026-04-25 12:30 -0.05217 43.90468 32908 ft 470 kts 33°
2026-04-25 12:30 0.00200 43.94133 32904 ft 469 kts 33°
2026-04-25 12:31 0.05619 43.97800 32905 ft 470 kts 33°
2026-04-25 12:31 0.11042 44.01470 32910 ft 471 kts 33°
2026-04-25 12:32 0.16496 44.05160 32910 ft 470 kts 33°
2026-04-25 12:32 0.21891 44.08811 32910 ft 471 kts 33°
2026-04-25 12:33 0.27350 44.12505 32909 ft 472 kts 33°
2026-04-25 12:33 0.32780 44.16180 32910 ft 471 kts 33°
2026-04-25 12:34 0.38385 44.19634 32910 ft 473 kts 30°
2026-04-25 12:34 0.44024 44.23031 32910 ft 473 kts 30°
2026-04-25 12:35 0.49619 44.26416 32909 ft 472 kts 30°
2026-04-25 12:35 0.55276 44.29846 32909 ft 474 kts 31°
2026-04-25 12:36 0.60923 44.33275 32909 ft 473 kts 31°
2026-04-25 12:36 0.66559 44.36698 32909 ft 475 kts 31°
2026-04-25 12:37 0.72186 44.40118 32909 ft 474 kts 31°
2026-04-25 12:37 0.77847 44.43559 32908 ft 475 kts 31°
2026-04-25 12:38 0.83508 44.47000 32909 ft 475 kts 31°
2026-04-25 12:38 0.89167 44.50441 32908 ft 475 kts 31°
2026-04-25 12:39 0.94808 44.53871 32907 ft 476 kts 31°
2026-04-25 12:39 1.00464 44.57310 32908 ft 477 kts 31°
2026-04-25 12:40 1.06141 44.60762 32908 ft 475 kts 31°
2026-04-25 12:40 1.11797 44.64201 32911 ft 476 kts 31°
2026-04-25 12:41 1.17446 44.67637 32910 ft 475 kts 31°
2026-04-25 12:41 1.23090 44.71069 32910 ft 475 kts 31°
2026-04-25 12:42 1.28723 44.74496 32910 ft 475 kts 31°
2026-04-25 12:42 1.34408 44.77954 32910 ft 476 kts 31°
2026-04-25 12:43 1.40063 44.81393 32910 ft 475 kts 31°
2026-04-25 12:43 1.48512 44.86533 32909 ft 475 kts 30°
2026-04-25 12:44 1.54188 44.89986 32909 ft 475 kts 30°
2026-04-25 12:45 1.62648 44.95133 32910 ft 474 kts 30°
2026-04-25 12:45 1.71120 45.00288 32909 ft 474 kts 30°
2026-04-25 12:46 1.76753 45.03715 32909 ft 474 kts 30°
2026-04-25 12:46 1.82409 45.07158 32913 ft 475 kts 30°
2026-04-25 12:47 1.88048 45.10590 32914 ft 474 kts 30°
2026-04-25 12:47 1.93688 45.14022 32918 ft 474 kts 30°
2026-04-25 12:48 1.99345 45.17466 32919 ft 475 kts 30°
2026-04-25 12:48 2.04976 45.20893 32921 ft 473 kts 30°
2026-04-25 12:49 2.10616 45.24327 32921 ft 473 kts 30°
2026-04-25 12:49 2.16246 45.27755 32925 ft 473 kts 30°
2026-04-25 12:50 2.21859 45.31173 32925 ft 472 kts 30°
2026-04-25 12:50 2.27496 45.34606 32925 ft 473 kts 30°
2026-04-25 12:51 2.33112 45.38026 32925 ft 473 kts 30°
2026-04-25 12:51 2.38699 45.41429 32922 ft 472 kts 30°
2026-04-25 12:52 2.44317 45.44851 32922 ft 471 kts 30°
2026-04-25 12:52 2.49925 45.48268 32921 ft 472 kts 30°
2026-04-25 12:53 2.55546 45.51692 32920 ft 470 kts 30°
2026-04-25 12:53 2.61120 45.55089 32922 ft 470 kts 30°
2026-04-25 12:54 2.66713 45.58497 32921 ft 471 kts 30°
2026-04-25 12:54 2.72327 45.61919 32922 ft 470 kts 30°
2026-04-25 12:55 2.76979 45.64754 32921 ft 470 kts 30°
2026-04-25 12:55 2.83526 45.68745 32922 ft 471 kts 30°
2026-04-25 12:56 2.89097 45.72141 32917 ft 470 kts 30°
2026-04-25 12:56 2.94695 45.75555 32915 ft 470 kts 30°
2026-04-25 12:57 3.00273 45.78956 32915 ft 470 kts 30°
2026-04-25 12:57 3.05876 45.82373 32917 ft 470 kts 30°
2026-04-25 12:58 3.11469 45.85785 32920 ft 470 kts 30°
2026-04-25 12:58 3.17059 45.89195 32923 ft 469 kts 30°
2026-04-25 12:59 3.22632 45.92595 32924 ft 470 kts 30°
2026-04-25 12:59 3.28200 45.95992 32926 ft 469 kts 30°
2026-04-25 13:00 3.32840 45.98824 32925 ft 469 kts 30°
2026-04-25 13:00 3.39379 46.02815 32924 ft 469 kts 30°
2026-04-25 13:01 3.44946 46.06214 32925 ft 469 kts 30°
2026-04-25 13:01 3.50512 46.09612 32924 ft 468 kts 30°
2026-04-25 13:02 3.56069 46.13005 32924 ft 468 kts 30°
2026-04-25 13:02 3.61649 46.16412 32924 ft 467 kts 30°
2026-04-25 13:03 3.67177 46.19789 32926 ft 467 kts 30°
2026-04-25 13:03 3.72708 46.23167 32922 ft 466 kts 30°
2026-04-25 13:04 3.78271 46.26566 32920 ft 467 kts 30°
2026-04-25 13:04 3.83825 46.29960 32917 ft 466 kts 30°
2026-04-25 13:05 3.89351 46.33337 32921 ft 466 kts 30°
2026-04-25 13:05 3.94872 46.36712 32919 ft 465 kts 30°
2026-04-25 13:06 4.00410 46.40098 32917 ft 465 kts 30°
2026-04-25 13:06 4.05930 46.43473 32916 ft 464 kts 30°
2026-04-25 13:07 4.11457 46.46853 32921 ft 465 kts 30°
2026-04-25 13:07 4.17000 46.50243 32919 ft 465 kts 30°
2026-04-25 13:08 4.22536 46.53629 32917 ft 464 kts 30°
2026-04-25 13:08 4.28059 46.57009 32916 ft 464 kts 30°
2026-04-25 13:09 4.33555 46.60372 32916 ft 464 kts 30°
2026-04-25 13:09 4.39093 46.63762 32918 ft 464 kts 30°
2026-04-25 13:10 4.44598 46.67131 32917 ft 465 kts 30°
2026-04-25 13:10 4.50123 46.70515 32919 ft 464 kts 30°
2026-04-25 13:11 4.55639 46.73892 32917 ft 464 kts 30°
2026-04-25 13:11 4.61176 46.77284 32917 ft 464 kts 30°
2026-04-25 13:12 4.66680 46.80656 32918 ft 465 kts 30°
2026-04-25 13:12 4.71279 46.83473 32919 ft 465 kts 30°
2026-04-25 13:13 4.77699 46.87408 32918 ft 465 kts 30°
2026-04-25 13:13 4.83221 46.90792 32917 ft 464 kts 30°
2026-04-25 13:14 4.88763 46.94190 32915 ft 463 kts 30°
2026-04-25 13:14 4.94265 46.97564 32916 ft 464 kts 30°
2026-04-25 13:15 4.99796 47.00956 32914 ft 464 kts 30°
2026-04-25 13:15 5.05285 47.04323 32913 ft 464 kts 30°
2026-04-25 13:16 5.10786 47.07698 32916 ft 463 kts 30°
2026-04-25 13:16 5.16319 47.11093 32920 ft 463 kts 30°
2026-04-25 13:17 5.21815 47.14468 32919 ft 462 kts 30°
2026-04-25 13:17 5.27303 47.17837 32918 ft 463 kts 30°
2026-04-25 13:18 5.32807 47.21216 32919 ft 463 kts 30°
2026-04-25 13:18 5.38302 47.24592 32920 ft 464 kts 30°
2026-04-25 13:19 5.43790 47.27963 32920 ft 462 kts 30°
2026-04-25 13:19 5.48388 47.30788 32920 ft 463 kts 29°
2026-04-25 13:20 5.54809 47.34735 32919 ft 462 kts 30°
2026-04-25 13:20 5.60281 47.38099 32922 ft 463 kts 30°
2026-04-25 13:21 5.65775 47.41476 32920 ft 463 kts 30°
2026-04-25 13:21 5.71292 47.44870 32918 ft 462 kts 30°
2026-04-25 13:22 5.76793 47.48254 32920 ft 463 kts 30°
2026-04-25 13:23 5.85008 47.53308 32919 ft 462 kts 29°
2026-04-25 13:23 5.90500 47.56688 32919 ft 463 kts 29°
2026-04-25 13:24 5.96026 47.60090 32912 ft 463 kts 29°
2026-04-25 13:24 6.01514 47.63470 32916 ft 463 kts 30°
2026-04-25 13:25 6.06995 47.66846 32919 ft 463 kts 30°
2026-04-25 13:25 6.12489 47.70231 32924 ft 463 kts 30°
2026-04-25 13:26 6.18003 47.73629 32921 ft 464 kts 30°
2026-04-25 13:26 6.23512 47.77025 32922 ft 463 kts 30°
2026-04-25 13:27 6.29000 47.80408 32924 ft 464 kts 30°
2026-04-25 13:27 6.34512 47.83807 32924 ft 464 kts 30°
2026-04-25 13:28 6.40013 47.87201 32928 ft 464 kts 30°
2026-04-25 13:28 6.45532 47.90606 32926 ft 464 kts 30°
2026-04-25 13:29 6.51060 47.94018 32929 ft 464 kts 30°
2026-04-25 13:29 6.56545 47.97404 32931 ft 464 kts 30°
2026-04-25 13:30 6.64827 48.02519 32935 ft 463 kts 30°
2026-04-25 13:31 6.73093 48.07625 32937 ft 463 kts 29°
2026-04-25 13:31 6.78589 48.11022 32937 ft 464 kts 30°
2026-04-25 13:32 6.84094 48.14424 32935 ft 463 kts 29°
2026-04-25 13:32 6.89594 48.17826 32934 ft 463 kts 29°
2026-04-25 13:33 6.95077 48.21217 32933 ft 464 kts 30°
2026-04-25 13:33 7.00578 48.24620 32933 ft 463 kts 30°
2026-04-25 13:34 7.06066 48.28016 32940 ft 463 kts 29°
2026-04-25 13:34 7.11562 48.31419 32945 ft 463 kts 29°
2026-04-25 13:35 7.17057 48.34821 32950 ft 463 kts 29°
2026-04-25 13:35 7.22548 48.38222 32956 ft 463 kts 29°
2026-04-25 13:36 7.28069 48.41643 32965 ft 463 kts 29°
2026-04-25 13:36 7.33544 48.45036 32965 ft 462 kts 29°
2026-04-25 13:37 7.39025 48.48434 32974 ft 462 kts 29°
2026-04-25 13:37 7.44476 48.51814 32973 ft 461 kts 29°
2026-04-25 13:38 7.49963 48.55218 32987 ft 461 kts 29°
2026-04-25 13:38 7.55422 48.58605 32993 ft 460 kts 29°
2026-04-25 13:39 7.60872 48.61988 32997 ft 460 kts 29°
2026-04-25 13:39 7.66339 48.65382 33008 ft 460 kts 29°
2026-04-25 13:40 7.71767 48.68753 33010 ft 458 kts 29°
2026-04-25 13:40 7.77216 48.72138 33021 ft 459 kts 29°
2026-04-25 13:41 7.82669 48.75526 33020 ft 458 kts 29°
2026-04-25 13:41 7.88079 48.78889 33024 ft 458 kts 29°
2026-04-25 13:42 7.93504 48.82263 33033 ft 457 kts 29°
2026-04-25 13:42 7.98951 48.85651 33034 ft 457 kts 29°
2026-04-25 13:43 8.04333 48.88999 33032 ft 457 kts 29°
2026-04-25 13:43 8.09782 48.92390 33026 ft 457 kts 29°
2026-04-25 13:44 8.15179 48.95751 33031 ft 456 kts 29°
2026-04-25 13:44 8.20580 48.99115 33025 ft 456 kts 29°
2026-04-25 13:45 8.26007 49.02495 33020 ft 457 kts 29°
2026-04-25 13:45 8.31388 49.05849 33017 ft 456 kts 29°
2026-04-25 13:46 8.36817 49.09233 33010 ft 457 kts 29°
2026-04-25 13:46 8.42221 49.12604 33012 ft 455 kts 29°
2026-04-25 13:47 8.47612 49.15966 33006 ft 457 kts 29°
2026-04-25 13:47 8.53057 49.19364 33010 ft 457 kts 29°
2026-04-25 13:48 8.58454 49.22733 33025 ft 456 kts 29°
2026-04-25 13:48 8.63840 49.26096 33026 ft 457 kts 29°
2026-04-25 13:49 8.69271 49.29489 33030 ft 456 kts 28°
2026-04-25 13:49 8.74666 49.32860 33035 ft 456 kts 28°
2026-04-25 13:50 8.80067 49.36236 33034 ft 456 kts 28°
2026-04-25 13:50 8.85459 49.39608 33027 ft 456 kts 28°
2026-04-25 13:51 8.90877 49.42997 33032 ft 456 kts 28°
2026-04-25 13:51 8.96292 49.46386 33030 ft 456 kts 28°
2026-04-25 13:52 9.01669 49.49752 33023 ft 456 kts 28°
2026-04-25 13:52 9.07076 49.53137 33019 ft 457 kts 28°
2026-04-25 13:53 9.12485 49.56525 33024 ft 456 kts 28°
2026-04-25 13:53 9.17924 49.59934 33032 ft 457 kts 28°
2026-04-25 13:54 9.23319 49.63316 33026 ft 457 kts 28°
2026-04-25 13:54 9.28737 49.66713 33025 ft 457 kts 28°
2026-04-25 13:55 9.34154 49.70112 33024 ft 457 kts 28°
2026-04-25 13:55 9.39539 49.73492 33026 ft 456 kts 28°
2026-04-25 13:56 9.44943 49.76884 33028 ft 456 kts 28°
2026-04-25 13:56 9.50360 49.80286 33038 ft 456 kts 28°
2026-04-25 13:57 9.55736 49.83664 33036 ft 456 kts 28°
2026-04-25 13:57 9.61165 49.87076 33042 ft 457 kts 28°
2026-04-25 13:58 9.66548 49.90461 33040 ft 455 kts 28°
2026-04-25 13:58 9.71942 49.93853 33043 ft 456 kts 28°
2026-04-25 13:59 9.77340 49.97250 33050 ft 456 kts 28°
2026-04-25 13:59 9.82743 50.00651 33039 ft 456 kts 28°
2026-04-25 14:00 9.88112 50.04032 33030 ft 456 kts 28°
2026-04-25 14:00 9.93517 50.07437 33030 ft 456 kts 28°
2026-04-25 14:01 9.98923 50.10844 33027 ft 456 kts 28°
2026-04-25 14:01 10.04321 50.14247 33023 ft 455 kts 28°
2026-04-25 14:02 10.09707 50.17643 33019 ft 456 kts 28°
2026-04-25 14:02 10.15114 50.21055 33015 ft 455 kts 28°
2026-04-25 14:03 10.20505 50.24458 32997 ft 456 kts 28°
2026-04-25 14:03 10.25881 50.27853 33003 ft 457 kts 28°
2026-04-25 14:04 10.31269 50.31257 33005 ft 455 kts 28°
2026-04-25 14:04 10.36688 50.34682 32994 ft 456 kts 28°
2026-04-25 14:05 10.42041 50.38066 32999 ft 456 kts 28°
2026-04-25 14:05 10.47430 50.41475 32999 ft 455 kts 28°
2026-04-25 14:06 10.52848 50.44903 33006 ft 456 kts 28°
2026-04-25 14:06 10.58236 50.48314 33009 ft 455 kts 28°
2026-04-25 14:07 10.63595 50.51707 32998 ft 456 kts 28°
2026-04-25 14:07 10.69010 50.55138 32999 ft 456 kts 28°
2026-04-25 14:08 10.74387 50.58546 33016 ft 456 kts 28°
2026-04-25 14:08 10.79786 50.61971 32999 ft 456 kts 28°
2026-04-25 14:09 10.85169 50.65385 33008 ft 456 kts 28°
2026-04-25 14:09 10.90551 50.68801 32992 ft 456 kts 28°
2026-04-25 14:10 10.95958 50.72234 33000 ft 456 kts 28°
2026-04-25 14:10 11.01342 50.75654 32991 ft 456 kts 28°
2026-04-25 14:11 11.06712 50.79066 32993 ft 457 kts 28°
2026-04-25 14:11 11.12110 50.82498 33001 ft 456 kts 28°
2026-04-25 14:12 11.17508 50.85931 32998 ft 457 kts 28°
2026-04-25 14:12 11.22883 50.89352 33006 ft 456 kts 28°
2026-04-25 14:13 11.28295 50.92797 33031 ft 456 kts 28°
2026-04-25 14:13 11.33647 50.96206 33025 ft 456 kts 28°
2026-04-25 14:14 11.39035 50.99639 33006 ft 456 kts 28°
2026-04-25 14:14 11.44411 51.03066 32996 ft 456 kts 28°
2026-04-25 14:15 11.49825 51.06519 32987 ft 456 kts 28°
2026-04-25 14:15 11.55214 51.09958 32972 ft 456 kts 28°
2026-04-25 14:16 11.60556 51.13367 32946 ft 456 kts 28°
2026-04-25 14:16 11.65959 51.16817 32944 ft 456 kts 28°
2026-04-25 14:17 11.71345 51.20259 32933 ft 456 kts 28°
2026-04-25 14:17 11.76732 51.23703 32926 ft 456 kts 28°
2026-04-25 14:18 11.82120 51.27149 32921 ft 455 kts 28°
2026-04-25 14:18 11.87503 51.30592 32917 ft 456 kts 28°
2026-04-25 14:19 11.92880 51.34035 32918 ft 455 kts 28°
2026-04-25 14:19 11.98253 51.37476 32916 ft 456 kts 28°
2026-04-25 14:20 12.03634 51.40920 32917 ft 455 kts 28°
2026-04-25 14:20 12.09023 51.44286 32915 ft 455 kts 27°
2026-04-25 14:21 12.14431 51.47662 32929 ft 456 kts 27°
2026-04-25 14:21 12.19834 51.51039 32932 ft 455 kts 27°
2026-04-25 14:22 12.25270 51.54439 32933 ft 455 kts 27°
2026-04-25 14:22 12.30653 51.57808 32938 ft 454 kts 27°
2026-04-25 14:23 12.36061 51.61195 32935 ft 455 kts 27°
2026-04-25 14:23 12.41451 51.64573 32935 ft 454 kts 27°
2026-04-25 14:24 12.46859 51.67963 32933 ft 455 kts 27°
2026-04-25 14:24 12.52264 51.71354 32935 ft 455 kts 27°
2026-04-25 14:25 12.57665 51.74744 32933 ft 455 kts 27°
2026-04-25 14:25 12.63067 51.78136 32935 ft 455 kts 27°
2026-04-25 14:26 12.68477 51.81535 32937 ft 455 kts 27°
2026-04-25 14:26 12.73874 51.84928 32938 ft 455 kts 27°
2026-04-25 14:27 12.79257 51.88313 32942 ft 455 kts 28°
2026-04-25 14:27 12.84673 51.91721 32945 ft 454 kts 27°
2026-04-25 14:28 12.90070 51.95118 32946 ft 455 kts 27°
2026-04-25 14:28 12.95473 51.98521 32944 ft 455 kts 28°
2026-04-25 14:29 13.00863 52.01918 32944 ft 455 kts 27°
2026-04-25 14:29 13.06278 52.05333 32947 ft 454 kts 27°
2026-04-25 14:30 13.11651 52.08722 32953 ft 455 kts 28°
2026-04-25 14:30 13.19726 52.13820 32954 ft 453 kts 27°
2026-04-25 14:31 13.25125 52.17229 32955 ft 454 kts 28°
2026-04-25 14:31 13.30481 52.20615 32955 ft 453 kts 27°
2026-04-25 14:32 13.35877 52.24027 32954 ft 453 kts 27°
2026-04-25 14:32 13.41214 52.27406 32954 ft 452 kts 28°
2026-04-25 14:33 13.46602 52.30827 32951 ft 453 kts 28°
2026-04-25 14:33 13.51954 52.34228 32954 ft 452 kts 28°
2026-04-25 14:34 13.57322 52.37639 32952 ft 452 kts 27°
2026-04-25 14:34 13.62643 52.41023 32949 ft 452 kts 28°
2026-04-25 14:35 13.68031 52.44451 32950 ft 452 kts 28°
2026-04-25 14:35 13.73360 52.47844 32950 ft 452 kts 27°
2026-04-25 14:36 13.78706 52.51249 32949 ft 451 kts 28°
2026-04-25 14:36 13.84083 52.54675 32946 ft 452 kts 28°
2026-04-25 14:37 13.89442 52.58092 32951 ft 453 kts 28°
2026-04-25 14:37 13.94802 52.61512 32948 ft 451 kts 27°
2026-04-25 14:38 14.00124 52.64909 32946 ft 451 kts 28°
2026-04-25 14:38 14.05476 52.68327 32946 ft 452 kts 28°
2026-04-25 14:39 14.10823 52.71744 32945 ft 452 kts 28°
2026-04-25 14:39 14.16183 52.75171 32956 ft 453 kts 28°
2026-04-25 14:40 14.21528 52.78591 32951 ft 453 kts 28°
2026-04-25 14:40 14.26868 52.82010 32956 ft 452 kts 28°
2026-04-25 14:41 14.32236 52.85447 32955 ft 451 kts 28°
2026-04-25 14:41 14.37561 52.88859 32948 ft 452 kts 28°
2026-04-25 14:42 14.42024 52.91721 32951 ft 453 kts 28°
2026-04-25 14:42 14.48283 52.95737 32957 ft 453 kts 28°
2026-04-25 14:43 14.53616 52.99160 32946 ft 452 kts 28°
2026-04-25 14:43 14.58982 53.02607 32949 ft 452 kts 28°
2026-04-25 14:44 14.64323 53.06039 32952 ft 453 kts 28°
2026-04-25 14:44 14.69681 53.09466 32950 ft 451 kts 28°
2026-04-25 14:45 14.75035 53.12873 32955 ft 452 kts 27°
2026-04-25 14:45 14.80417 53.16302 32948 ft 452 kts 28°
2026-04-25 14:46 14.85755 53.19705 32954 ft 452 kts 28°
2026-04-25 14:46 14.91120 53.23127 32951 ft 452 kts 28°
2026-04-25 14:47 14.95585 53.25978 32950 ft 452 kts 28°
2026-04-25 14:47 15.01842 53.29975 32946 ft 452 kts 28°
2026-04-25 14:48 15.07178 53.33385 32949 ft 451 kts 28°
2026-04-25 14:48 15.12552 53.36822 32958 ft 452 kts 28°
2026-04-25 14:49 15.17895 53.40242 32959 ft 452 kts 28°
2026-04-25 14:49 15.23243 53.43667 32955 ft 453 kts 28°
2026-04-25 14:50 15.28597 53.47097 32953 ft 451 kts 28°
2026-04-25 14:50 15.33949 53.50528 32957 ft 452 kts 28°
2026-04-25 14:51 15.39331 53.53981 32955 ft 453 kts 28°
2026-04-25 14:51 15.44678 53.57421 32955 ft 453 kts 28°
2026-04-25 14:52 15.49988 53.60959 32953 ft 452 kts 29°
2026-04-25 14:52 15.54427 53.63923 32955 ft 455 kts 29°
2026-04-25 14:53 15.60626 53.68062 32949 ft 454 kts 29°
2026-04-25 14:53 15.65934 53.71605 32949 ft 454 kts 29°
2026-04-25 14:54 15.71247 53.75152 32951 ft 454 kts 29°
2026-04-25 14:54 15.76593 53.78724 32949 ft 454 kts 29°
2026-04-25 14:55 15.81915 53.82281 32948 ft 455 kts 29°
2026-04-25 14:55 15.87214 53.85825 32947 ft 455 kts 29°
2026-04-25 14:56 15.92550 53.89359 32949 ft 455 kts 29°
2026-04-25 14:56 15.97922 53.92899 32951 ft 455 kts 29°
2026-04-25 14:57 16.03263 53.96422 32948 ft 455 kts 29°
2026-04-25 14:57 16.08615 53.99956 32947 ft 455 kts 29°
2026-04-25 14:58 16.13975 54.03498 32958 ft 455 kts 29°
2026-04-25 14:58 16.19293 54.07015 32960 ft 455 kts 29°
2026-04-25 14:59 16.24656 54.10564 32956 ft 455 kts 29°
2026-04-25 14:59 16.29986 54.14094 32958 ft 455 kts 29°
2026-04-25 15:00 16.35326 54.17632 32963 ft 456 kts 29°
2026-04-25 15:00 16.40657 54.21168 32962 ft 455 kts 29°
2026-04-25 15:01 16.46024 54.24729 32957 ft 454 kts 29°
2026-04-25 15:01 16.51348 54.28264 32963 ft 456 kts 29°
2026-04-25 15:02 16.56700 54.31820 32965 ft 455 kts 29°
2026-04-25 15:02 16.62041 54.35371 32958 ft 454 kts 29°
2026-04-25 15:03 16.67393 54.38932 32964 ft 455 kts 29°
2026-04-25 15:03 16.72709 54.42471 32959 ft 455 kts 29°
2026-04-25 15:04 16.78047 54.46028 32960 ft 456 kts 29°
2026-04-25 15:04 16.83393 54.49591 32960 ft 455 kts 30°
2026-04-25 15:05 16.88734 54.53155 32960 ft 454 kts 30°
2026-04-25 15:06 16.96729 54.58490 32954 ft 455 kts 30°
2026-04-25 15:06 17.02028 54.62030 32961 ft 453 kts 30°
2026-04-25 15:07 17.07354 54.65589 32992 ft 454 kts 30°
2026-04-25 15:07 17.12683 54.69152 33031 ft 454 kts 30°
2026-04-25 15:08 17.17995 54.72708 33062 ft 453 kts 30°
2026-04-25 15:08 17.23312 54.76269 33101 ft 454 kts 30°
2026-04-25 15:09 17.28628 54.79872 33116 ft 455 kts 32°
2026-04-25 15:09 17.36316 54.85693 33107 ft 455 kts 33°
2026-04-25 15:10 17.41443 54.89570 33094 ft 455 kts 33°
2026-04-25 15:11 17.49136 54.95376 33076 ft 454 kts 33°
2026-04-25 15:11 17.54310 54.99278 33064 ft 455 kts 33°
2026-04-25 15:12 17.62006 55.05085 33034 ft 453 kts 33°
2026-04-25 15:12 17.66271 55.08304 33024 ft 456 kts 33°
2026-04-25 15:13 17.74815 55.14759 33011 ft 454 kts 33°
2026-04-25 15:14 17.79947 55.18640 33009 ft 454 kts 33°
2026-04-25 15:14 17.85091 55.22533 33005 ft 454 kts 33°
2026-04-25 15:15 17.90179 55.26387 33000 ft 454 kts 33°
2026-04-25 15:15 17.95333 55.30294 32995 ft 453 kts 33°
2026-04-25 15:16 18.00421 55.34154 32991 ft 452 kts 33°
2026-04-25 15:16 18.08100 55.39984 32986 ft 453 kts 33°
2026-04-25 15:17 18.15980 55.45454 32994 ft 451 kts 30°
2026-04-25 15:18 18.21246 55.49033 32993 ft 452 kts 30°
2026-04-25 15:18 18.29150 55.54431 32985 ft 450 kts 30°
2026-04-25 15:19 18.33503 55.57411 32987 ft 450 kts 30°
2026-04-25 15:19 18.39654 55.61628 32987 ft 450 kts 30°
2026-04-25 15:20 18.44914 55.65239 32980 ft 451 kts 31°
2026-04-25 15:20 18.50156 55.68840 32978 ft 450 kts 31°
2026-04-25 15:21 18.55408 55.72451 32985 ft 449 kts 31°
2026-04-25 15:21 18.60623 55.76040 32981 ft 450 kts 31°
2026-04-25 15:22 18.65872 55.79655 32981 ft 449 kts 31°
2026-04-25 15:22 18.71120 55.83272 32982 ft 449 kts 31°
2026-04-25 15:23 18.76372 55.86894 32985 ft 448 kts 31°
2026-04-25 15:23 18.81610 55.90509 32986 ft 450 kts 31°
2026-04-25 15:24 18.86819 55.94107 32983 ft 449 kts 31°
2026-04-25 15:24 18.91162 55.97110 32983 ft 447 kts 31°
2026-04-25 15:25 18.97425 56.00992 32987 ft 445 kts 20°
2026-04-25 15:25 19.03324 56.02831 32983 ft 444 kts 13°
2026-04-25 15:26 19.09305 56.04433 32978 ft 443 kts 13°
2026-04-25 15:26 19.15309 56.06042 32982 ft 441 kts 13°
2026-04-25 15:27 19.21260 56.07638 32986 ft 442 kts 12°
2026-04-25 15:28 19.30225 56.10045 32983 ft 443 kts 13°
2026-04-25 15:28 19.36219 56.11658 32982 ft 443 kts 13°
2026-04-25 15:29 19.42216 56.13273 32979 ft 443 kts 13°
2026-04-25 15:29 19.48198 56.14883 32978 ft 442 kts 13°
2026-04-25 15:30 19.54135 56.16483 32980 ft 443 kts 13°
2026-04-25 15:30 19.60140 56.18102 32976 ft 441 kts 13°
2026-04-25 15:31 19.66074 56.19702 32974 ft 443 kts 13°
2026-04-25 15:31 19.72071 56.21322 32977 ft 443 kts 13°
2026-04-25 15:32 19.78034 56.22933 32974 ft 443 kts 13°
2026-04-25 15:32 19.84031 56.24554 32975 ft 443 kts 13°
2026-04-25 15:33 19.93009 56.26984 32973 ft 443 kts 13°
2026-04-25 15:33 19.99042 56.28063 32970 ft 439 kts
2026-04-25 15:34 20.05191 56.28104 32970 ft 440 kts 359°
2026-04-25 15:34 20.10304 56.28112 32970 ft 440 kts 359°
2026-04-25 15:35 20.20499 56.28135 32982 ft 439 kts 359°
2026-04-25 15:36 20.29739 56.28156 32978 ft 441 kts 359°
2026-04-25 15:36 20.35875 56.28171 32980 ft 440 kts 359°
2026-04-25 15:37 20.42017 56.28186 32981 ft 440 kts 359°
2026-04-25 15:37 20.48120 56.28201 32982 ft 440 kts 359°
2026-04-25 15:38 20.54252 56.28215 32973 ft 440 kts 359°
2026-04-25 15:38 20.60344 56.27548 32976 ft 439 kts 352°
2026-04-25 15:39 20.66421 56.26663 32977 ft 440 kts 352°
2026-04-25 15:39 20.72526 56.25776 32975 ft 440 kts 352°
2026-04-25 15:40 20.77560 56.25045 32975 ft 440 kts 352°
2026-04-25 15:40 20.84659 56.24015 32972 ft 439 kts 352°
2026-04-25 15:41 20.90768 56.23128 32969 ft 439 kts 352°
2026-04-25 15:41 20.96846 56.22245 32971 ft 441 kts 352°
2026-04-25 15:42 21.02890 56.21367 32969 ft 439 kts 352°
2026-04-25 15:42 21.08964 56.20483 32966 ft 440 kts 352°
2026-04-25 15:43 21.15009 56.19603 32972 ft 439 kts 352°
2026-04-25 15:43 21.21115 56.18713 32972 ft 438 kts 352°
2026-04-25 15:44 21.27153 56.17833 32965 ft 440 kts 352°
2026-04-25 15:44 21.33226 56.16944 32965 ft 439 kts 352°
2026-04-25 15:45 21.39272 56.16056 32966 ft 440 kts 352°
2026-04-25 15:45 21.44369 56.15308 32962 ft 440 kts 352°
2026-04-25 15:46 21.51426 56.14272 32957 ft 441 kts 352°
2026-04-25 15:46 21.54504 56.13819 32963 ft 453 kts 352°
2026-04-25 15:46 21.57694 56.13350 32967 ft 465 kts 352°
2026-04-25 15:47 21.60913 56.12876 32961 ft 477 kts 352°
2026-04-25 15:47 21.64265 56.12382 32967 ft 487 kts 352°
2026-04-25 15:47 21.71006 56.11389 32964 ft 490 kts 352°
2026-04-25 15:48 21.77799 56.10387 32962 ft 490 kts 352°
2026-04-25 15:48 21.84533 56.09393 32962 ft 488 kts 352°
2026-04-25 15:49 21.91255 56.08400 32962 ft 490 kts 352°
2026-04-25 15:49 21.98036 56.07397 32959 ft 490 kts 352°
2026-04-25 15:50 22.04769 56.06401 32963 ft 489 kts 352°
2026-04-25 15:50 22.11540 56.05399 32970 ft 489 kts 352°
2026-04-25 15:51 22.17169 56.04566 32972 ft 490 kts 352°
2026-04-25 15:51 22.25083 56.03393 32968 ft 489 kts 352°
2026-04-25 15:52 22.31850 56.02389 32973 ft 490 kts 352°
2026-04-25 15:52 22.38593 56.01387 32974 ft 490 kts 352°
2026-04-25 15:53 22.45324 56.00394 32886 ft 491 kts 352°
2026-04-25 15:53 22.48734 55.99891 32635 ft 491 kts 352°
2026-04-25 15:53 22.52122 55.99390 32379 ft 489 kts 352°
2026-04-25 15:54 22.55500 55.98891 32124 ft 488 kts 352°
2026-04-25 15:54 22.58861 55.98394 31871 ft 489 kts 352°
2026-04-25 15:54 22.62217 55.97898 31613 ft 487 kts 352°
2026-04-25 15:54 22.65382 55.97430 31371 ft 488 kts 352°
2026-04-25 15:55 22.68714 55.96936 31124 ft 486 kts 352°
2026-04-25 15:55 22.72065 55.96440 30865 ft 485 kts 353°
2026-04-25 15:55 22.75415 55.95943 30608 ft 485 kts 353°
2026-04-25 15:55 22.78760 55.95447 30354 ft 486 kts 353°
2026-04-25 15:56 22.82118 55.94948 30097 ft 485 kts 353°
2026-04-25 15:56 22.85474 55.94447 29845 ft 485 kts 353°
2026-04-25 15:56 22.88826 55.93945 29590 ft 485 kts 353°
2026-04-25 15:56 22.92158 55.93446 29332 ft 477 kts 353°
2026-04-25 15:57 22.95385 55.92963 29081 ft 468 kts 353°
2026-04-25 15:57 22.98603 55.92480 28826 ft 465 kts 353°
2026-04-25 15:57 23.01846 55.91995 28568 ft 472 kts 353°
2026-04-25 15:57 23.05089 55.91508 28309 ft 470 kts 353°
2026-04-25 15:58 23.08304 55.91024 28053 ft 465 kts 353°
2026-04-25 15:58 23.11516 55.90540 27797 ft 461 kts 353°
2026-04-25 15:58 23.14714 55.90058 27541 ft 460 kts 353°
2026-04-25 15:58 23.17870 55.89582 27290 ft 458 kts 353°
2026-04-25 15:59 23.21013 55.89108 27038 ft 457 kts 353°
2026-04-25 15:59 23.24142 55.88636 26785 ft 454 kts 353°
2026-04-25 15:59 23.27269 55.88164 26533 ft 451 kts 353°
2026-04-25 15:59 23.30417 55.87688 26279 ft 453 kts 353°
2026-04-25 16:00 23.33564 55.87213 26028 ft 467 kts 353°
2026-04-25 16:00 23.34626 55.87053 25944 ft 470 kts 353°
2026-04-25 16:00 23.40045 55.86233 25516 ft 467 kts 353°
2026-04-25 16:00 23.43258 55.85746 25264 ft 464 kts 353°
2026-04-25 16:01 23.46440 55.85264 25014 ft 462 kts 353°
2026-04-25 16:01 23.49660 55.84776 24759 ft 461 kts 352°
2026-04-25 16:01 23.52805 55.84299 24509 ft 460 kts 352°
2026-04-25 16:01 23.55966 55.83820 24258 ft 457 kts 352°
2026-04-25 16:02 23.59132 55.83338 24007 ft 456 kts 352°
2026-04-25 16:02 23.62264 55.82862 23752 ft 453 kts 352°
2026-04-25 16:02 23.65405 55.82384 23525 ft 451 kts 352°
2026-04-25 16:02 23.68483 55.81935 23374 ft 455 kts 355°
2026-04-25 16:03 23.71734 55.81854 23239 ft 476 kts
2026-04-25 16:03 23.75073 55.82153 23108 ft 477 kts
2026-04-25 16:03 23.78398 55.82503 22979 ft 476 kts
2026-04-25 16:03 23.81663 55.82849 22852 ft 475 kts
2026-04-25 16:04 23.84983 55.83199 22724 ft 474 kts
2026-04-25 16:04 23.88240 55.83543 22597 ft 471 kts
2026-04-25 16:04 23.91521 55.83888 22469 ft 471 kts
2026-04-25 16:04 23.94779 55.84230 22343 ft 470 kts
2026-04-25 16:05 23.97999 55.84568 22219 ft 468 kts
2026-04-25 16:05 24.01249 55.84909 22092 ft 468 kts
2026-04-25 16:05 24.07781 55.85595 22000 ft 466 kts
2026-04-25 16:06 24.10984 55.85931 22002 ft 467 kts
2026-04-25 16:06 24.14216 55.86270 22005 ft 466 kts
2026-04-25 16:06 24.17483 55.86613 22007 ft 467 kts
2026-04-25 16:06 24.20706 55.86952 22007 ft 466 kts
2026-04-25 16:07 24.23931 55.87291 22006 ft 467 kts
2026-04-25 16:07 24.26118 55.87521 22007 ft 465 kts
2026-04-25 16:07 24.30400 55.87972 22062 ft 466 kts
2026-04-25 16:07 24.33638 55.88549 22009 ft 467 kts 14°
2026-04-25 16:08 24.36682 55.89646 22043 ft 465 kts 22°
2026-04-25 16:08 24.39596 55.91293 22011 ft 468 kts 31°
2026-04-25 16:08 24.42216 55.93422 22012 ft 467 kts 40°
2026-04-25 16:08 24.44550 55.95842 21919 ft 467 kts 43°
2026-04-25 16:09 24.46847 55.98285 21639 ft 453 kts 43°
2026-04-25 16:09 24.49087 56.00639 21351 ft 440 kts 43°
2026-04-25 16:09 24.51304 56.02942 21065 ft 428 kts 43°
2026-04-25 16:09 24.53442 56.05143 20778 ft 417 kts 43°
2026-04-25 16:10 24.55538 56.07288 20489 ft 407 kts 43°
2026-04-25 16:10 24.57594 56.09347 20199 ft 397 kts 39°
2026-04-25 16:10 24.59856 56.11035 19859 ft 390 kts 29°
2026-04-25 16:10 24.62320 56.12192 19499 ft 387 kts 18°
2026-04-25 16:11 24.64976 56.12881 19142 ft 389 kts 12°
2026-04-25 16:11 24.67622 56.13423 18779 ft 388 kts 12°
2026-04-25 16:11 24.70255 56.13942 18418 ft 387 kts 12°
2026-04-25 16:11 24.72919 56.14455 18049 ft 385 kts 12°
2026-04-25 16:12 24.75546 56.14946 17679 ft 384 kts 10°
2026-04-25 16:12 24.78212 56.15084 17322 ft 383 kts 359°
2026-04-25 16:12 24.80860 56.14649 16968 ft 380 kts 347°
2026-04-25 16:12 24.82530 56.14046 16719 ft 379 kts 341°
2026-04-25 16:13 24.85740 56.12524 16228 ft 373 kts 339°
2026-04-25 16:13 24.88099 56.11373 15857 ft 369 kts 339°
2026-04-25 16:13 24.90417 56.10239 15485 ft 364 kts 339°
2026-04-25 16:13 24.92719 56.09109 15070 ft 359 kts 339°
2026-04-25 16:14 24.94976 56.07999 14697 ft 350 kts 339°
2026-04-25 16:14 24.97080 56.06746 14310 ft 345 kts 324°
2026-04-25 16:14 24.98819 56.04970 13937 ft 339 kts 315°
2026-04-25 16:14 25.00341 56.02979 13540 ft 335 kts 302°
2026-04-25 16:15 25.01231 56.00652 13151 ft 330 kts 287°
2026-04-25 16:15 25.01845 55.98225 12774 ft 325 kts 285°
2026-04-25 16:15 25.02422 55.95844 12402 ft 319 kts 285°
2026-04-25 16:15 25.02984 55.93522 12023 ft 315 kts 285°
2026-04-25 16:16 25.03542 55.91212 11601 ft 313 kts 286°
2026-04-25 16:16 25.04100 55.88904 11188 ft 310 kts 285°
2026-04-25 16:16 25.04652 55.86615 10752 ft 308 kts 285°
2026-04-25 16:16 25.05201 55.84339 10316 ft 305 kts 286°
2026-04-25 16:17 25.05741 55.82101 9899 ft 304 kts 286°
2026-04-25 16:17 25.06277 55.79877 9486 ft 302 kts 286°
2026-04-25 16:17 25.06818 55.77634 9049 ft 300 kts 286°
2026-04-25 16:17 25.07349 55.75427 8636 ft 299 kts 285°
2026-04-25 16:18 25.07878 55.73231 8222 ft 297 kts 285°
2026-04-25 16:18 25.08055 55.72496 8078 ft 296 kts 285°
2026-04-25 16:18 25.08922 55.68898 7468 ft 290 kts 285°
2026-04-25 16:18 25.09436 55.66750 7121 ft 282 kts 284°
2026-04-25 16:19 25.09929 55.64701 6769 ft 274 kts 285°
2026-04-25 16:19 25.10625 55.62807 6371 ft 267 kts 296°
2026-04-25 16:19 25.11556 55.61072 6014 ft 251 kts 301°
2026-04-25 16:20 25.13247 55.58074 5154 ft 218 kts 301°
2026-04-25 16:20 25.14024 55.56685 4654 ft 212 kts 301°
2026-04-25 16:20 25.15544 55.53959 3597 ft 208 kts 300°
2026-04-25 16:21 25.16302 55.52591 3052 ft 206 kts 299°
2026-04-25 16:21 25.17040 55.51261 2494 ft 206 kts 299°
2026-04-25 16:21 25.17787 55.49923 1941 ft 205 kts 300°
2026-04-25 16:21 25.18513 55.48631 1612 ft 193 kts 300°
2026-04-25 16:22 25.19194 55.47409 1384 ft 181 kts 299°
2026-04-25 16:22 25.19839 55.46250 1167 ft 170 kts 299°
2026-04-25 16:22 25.20441 55.45165 966 ft 171 kts 299°
2026-04-25 16:22 25.21062 55.44038 806 ft 170 kts 298°
2026-04-25 16:23 25.21679 55.42911 717 ft 173 kts 299°
2026-04-25 16:23 25.22305 55.41760 539 ft 175 kts 301°
2026-04-25 16:23 25.22942 55.40638 326 ft 171 kts 300°
2026-04-25 16:23 25.23557 55.39544 95 ft 163 kts 300°
2026-04-25 16:24 25.24091 55.38571 46 ft 123 kts 302°
2026-04-25 16:24 25.24456 55.37919 46 ft 70 kts 301°
2026-04-25 16:24 25.24624 55.37609 45 ft 40 kts 298°
2026-04-25 16:24 25.24748 55.37388 45 ft 28 kts 299°
2026-04-25 16:25 25.24787 55.37181 45 ft 27 kts 271°
2026-04-25 16:25 25.24788 55.37087 45 ft 12 kts 270°
2026-04-25 16:25 25.24789 55.37048 45 ft 0 kts 273°
2026-04-25 16:28 25.24789 55.37044 45 ft 4 kts 273°
2026-04-25 16:28 25.24788 55.36974 45 ft 8 kts 252°
2026-04-25 16:28 25.24743 55.36934 45 ft 6 kts 217°
2026-04-25 16:28 25.24732 55.36890 45 ft 6 kts 288°
2026-04-25 16:29 25.24768 55.36785 45 ft 25 kts 291°
2026-04-25 16:29 25.24820 55.36607 45 ft 23 kts 296°
2026-04-25 16:29 25.24905 55.36457 45 ft 17 kts 305°
2026-04-25 16:29 25.24976 55.36395 45 ft 17 kts 331°
2026-04-25 16:30 25.25093 55.36297 45 ft 22 kts 308°
2026-04-25 16:30 25.25172 55.36156 45 ft 20 kts 300°
2026-04-25 16:30 25.25245 55.36020 45 ft 19 kts 303°
2026-04-25 16:30 25.25314 55.35895 45 ft 18 kts 303°
2026-04-25 16:31 25.25380 55.35778 45 ft 17 kts 302°
2026-04-25 16:31 25.25377 55.35679 45 ft 11 kts 231°
2026-04-25 16:31 25.25377 55.35606 45 ft 10 kts 297°
2026-04-25 16:31 25.25413 55.35538 45 ft 10 kts 302°
2026-04-25 16:32 25.25435 55.35474 45 ft 6 kts 235°
2026-04-25 16:32 25.25397 55.35449 45 ft 6 kts 210°
2026-04-25 16:32 25.25373 55.35433 45 ft 2 kts 210°
2026-04-25 16:32 25.25362 55.35426 45 ft 0 kts 211°